Weather - Helsinki Query any day in the database

Current weather  

Weather data for a selected day (2006-01-01 -2020-10-31)
Enter date:     <-     scroll days         ->
day curves
Low temperature°C +17.003:20
High temperature°C +30.017:20
Low wind chill°C 17.003:20
Average temperature°C +24.9 
High wind speed (10 min) m/s 7.018:20
Low pressurehPa 1014.022:20
High pressurehPa 1016.006:20
Low R.H% 3713:50
High R.H% 8803:20
Day weather data as a table
Date Time Temp
°C
Chill
°C
Pressure
hPA
Wind
m/s
Hum
%
Precip
mm
2013-06-26 23:50:00 23.0  ....  1015.0 1.0 73 -
2013-06-26 23:20:00 24.0  ....  1015.0 3.0 69 -
2013-06-26 22:50:00 23.0  ....  1015.0 2.0 73 -
2013-06-26 22:20:00 24.0  ....  1014.0 2.0 69 -
2013-06-26 21:50:00 24.0  ....  1015.0 4.0 64 -
2013-06-26 21:20:00 24.0  ....  1015.0 3.0 69 -
2013-06-26 20:50:00 24.0  ....  1014.0 1.0 69 -
2013-06-26 20:20:00 24.0  ....  1014.0 1.0 69 -
2013-06-26 19:50:00 23.0  ....  1015.0 3.0 78 -
2013-06-26 19:20:00 26.0  ....  1015.0 5.0 57 -
2013-06-26 18:50:00 28.0  ....  1015.0 4.0 51 -
2013-06-26 18:20:00 28.0  ....  1015.0 7.0 48 -
2013-06-26 17:50:00 29.0  ....  1015.0 5.0 42 -
2013-06-26 17:20:00 30.0  ....  1015.0 5.0 40 -
2013-06-26 16:50:00 30.0  ....  1015.0 6.0 40 -
2013-06-26 16:20:00 30.0  ....  1015.0 5.0 40 -
2013-06-26 15:50:00 30.0  ....  1015.0 5.0 40 -
2013-06-26 14:20:00 30.0  ....  1015.0 5.0 37 -
2013-06-26 13:50:00 29.0  ....  1015.0 5.0 37 -
2013-06-26 13:20:00 29.0  ....  1015.0 5.0 42 -
2013-06-26 12:50:00 28.0  ....  1015.0 5.0 45 -
2013-06-26 12:20:00 29.0  ....  1015.0 5.0 48 -
2013-06-26 11:50:00 29.0  ....  1015.0 5.0 45 -
2013-06-26 11:20:00 29.0  ....  1015.0 5.0 45 -
2013-06-26 10:50:00 28.0  ....  1015.0 4.0 48 -
2013-06-26 09:50:00 27.0  ....  1015.0 4.0 44 -
2013-06-26 09:20:00 26.0  ....  1015.0 4.0 47 -
2013-06-26 08:50:00 25.0  ....  1015.0 4.0 53 -
2013-06-26 08:20:00 25.0  ....  1015.0 4.0 57 -
2013-06-26 07:50:00 24.0  ....  1015.0 4.0 60 -
2013-06-26 07:20:00 23.0  ....  1015.0 4.0 64 -
2013-06-26 06:50:00 22.0  ....  1015.0 4.0 64 -
2013-06-26 06:20:00 22.0  ....  1016.0 3.0 64 -
2013-06-26 05:50:00 20.0  20.0  1016.0 3.0 72 -
2013-06-26 05:20:00 20.0  20.0  1016.0 3.0 72 -
2013-06-26 04:50:00 19.0  19.0  1016.0 2.0 77 -
2013-06-26 04:20:00 19.0  19.0  1016.0 2.0 77 -
2013-06-26 03:20:00 17.0  17.0  1016.0 1.0 88 -
2013-06-26 01:50:00 18.0  18.0  1016.0 1.0 82 -
2013-06-26 01:20:00 19.0  19.0  1016.0 1.0 82 -
2013-06-26 00:20:00 21.0  ....  1016.0 1.0 68 -
Unit conversions: